This is the latest recevied weather packets stored in our database for station/object N0HOT. If no packets are shown the sender has not sent any weather packets the latest 10 day(s).
| Time | Temp. | Humidity | Pressure | Rain* | Wind** | Luminosity | Snow |
|---|---|---|---|---|---|---|---|
| 1777763265 | 18.33° C | 24% | 1012.5 hPa | 0 mm | - | 104 W/m² | - |
| 1777762962 | 18.33° C | 23% | 1012.5 hPa | 0 mm | - | 68 W/m² | - |
| 1777762658 | 18.89° C | 22% | 1012.5 hPa | 0 mm | - | 123 W/m² | - |
| 1777762356 | 18.89° C | 22% | 1012.5 hPa | 0 mm | - | 220 W/m² | - |
| 1777762052 | 18.89° C | 23% | 1012.5 hPa | 0 mm | - | 228 W/m² | - |
| 1777761749 | 18.89° C | 23% | 1012.8 hPa | 0 mm | - | 241 W/m² | - |
| 1777761446 | 18.89° C | 21% | 1012.5 hPa | 0 mm | - | 98 W/m² | - |
| 1777761144 | 18.89° C | 21% | 1012.8 hPa | 0 mm | - | 252 W/m² | - |
| 1777760842 | 18.33° C | 24% | 1012.8 hPa | 0 mm | - | 269 W/m² | - |
| 1777760538 | 18.33° C | 22% | 1012.8 hPa | 0 mm | - | 254 W/m² | - |
| 1777760234 | 18.89° C | 22% | 1012.8 hPa | 0 mm | - | 314 W/m² | - |
| 1777759931 | 18.89° C | 22% | 1012.8 hPa | 0 mm | - | 337 W/m² | - |
| 1777759627 | 18.89° C | 22% | 1013.2 hPa | 0 mm | - | 293 W/m² | - |
| 1777759323 | 18.89° C | 23% | 1013.2 hPa | 0 mm | - | 378 W/m² | - |
| 1777759021 | 18.89° C | 21% | 1013.2 hPa | 0 mm | - | 320 W/m² | - |
| 1777758717 | 18.89° C | 21% | 1013.6 hPa | 0 mm | - | 452 W/m² | - |
| 1777758415 | 18.89° C | 22% | 1013.6 hPa | 0 mm | - | 531 W/m² | - |
| 1777758112 | 18.89° C | 21% | 1013.2 hPa | 0 mm | - | 465 W/m² | - |
| 1777757809 | 18.89° C | 22% | 1013.6 hPa | 0 mm | - | 500 W/m² | - |
| 1777757506 | 18.89° C | 21% | 1013.6 hPa | 0 mm | - | 498 W/m² | - |
| 1777757205 | 18.89° C | 20% | 1013.6 hPa | 0 mm | - | 490 W/m² | - |
| 1777756903 | 18.89° C | 20% | 1013.6 hPa | 0 mm | - | 552 W/m² | - |
| 1777756598 | 18.89° C | 21% | 1013.9 hPa | 0 mm | - | 571 W/m² | - |
| 1777756295 | 18.89° C | 19% | 1013.9 hPa | 0 mm | - | 563 W/m² | - |
| 1777755993 | 18.89° C | 20% | 1013.9 hPa | 0 mm | - | 527 W/m² | - |
* Rain latest hour (hover to see other rain measurements)
** Current wind speed in m/s (hover to see current wind gust speed)